Weather History for Homerville, GA

Change the Weather History Date:

Wednesday, February 13, 2013

  Actual Average Record
Temperature  
Mean Temperature 66 °F -  
Max Temperature 80 °F 64 °F 82 °F (1959)
Min Temperature 50 °F 38 °F 23 °F (1968)
Growing Degree Days 16 (Base 50)    
Moisture  
Dew Point 59 °F    
Average Humidity 72    
Maximum Humidity 94    
Minimum Humidity 39    
Precipitation  
Precipitation 0.00 in - - ()
Sea Level Pressure  
Sea Level Pressure 29.85 in    
Wind  
Wind Speed 12 mph (West)    
Max Wind Speed 22 mph    
Max Gust Speed 30 mph    
Visibility 10 miles    
Events Rain , Thunderstorm    
Averages and records for this station are not official NWS values.
T = Trace of Precipitation, MM = Missing Value Source: NWS Daily Summary

Daily Weather History Graph

Daily Weather History Graph

Search for Another Location

Airport:

Trip Planner

Search our weather history database for the weather conditions in past years. The results will help you decide how hot, cold, wet, or windy it might be!

Date:

Astronomy

Feb. 13, 2013 Rise Set
Actual Time 7:13 AM EST 6:17 PM EST
Civil Twilight 6:48 AM EST 6:42 PM EST
Nautical Twilight 6:20 AM EST 7:10 PM EST
Astronomical Twilight 5:52 AM EST 7:38 PM EST
Moon 9:00 AM EST (2/13) 9:58 PM EST (2/13)
Length of Visible Light 11h 53m
Length of Day
11h 03m
Waxing Crescent, 13% of the Moon is Illuminated
Feb 13
Waxing Crescent
Feb 17
First Quarter
Feb 25
Full
Mar 4
Last Quarter
Mar 11
New

Hourly Weather History & Observations

Time (EST) Temp. Heat Index Dew Point Humidity Pressure Visibility Wind Dir Wind Speed Gust Speed Precip Events Conditions
12:15 AM 71.6 °F - 69.8 °F 94% 29.82 in 10.0 mi SW 10.4 mph 19.6 mph N/A   Overcast
12:35 AM 71.6 °F - 69.8 °F 94% 29.82 in 10.0 mi SW 12.7 mph 23.0 mph N/A   Overcast
12:55 AM 71.6 °F - 69.8 °F 94% 29.82 in 10.0 mi SW 9.2 mph 20.7 mph N/A   Overcast
1:15 AM 71.6 °F - 69.8 °F 94% 29.82 in 10.0 mi WSW 10.4 mph 17.3 mph N/A   Overcast
1:35 AM 71.6 °F - 69.8 °F 94% 29.80 in 10.0 mi SW 10.4 mph 16.1 mph N/A Thunderstorm Overcast
1:55 AM 71.6 °F - 69.8 °F 94% 29.80 in 10.0 mi SW 9.2 mph 17.3 mph N/A   Overcast
2:15 AM 71.6 °F - 69.8 °F 94% 29.80 in 10.0 mi WSW 4.6 mph - N/A   Overcast
2:35 AM 71.6 °F - 69.8 °F 94% 29.80 in 10.0 mi SW 13.8 mph 19.6 mph N/A   Overcast
2:55 AM 71.6 °F - 69.8 °F 94% 29.80 in 10.0 mi WSW 13.8 mph 19.6 mph N/A Thunderstorm Overcast
3:15 AM 71.6 °F - 69.8 °F 94% 29.79 in 10.0 mi WSW 15.0 mph 24.2 mph N/A Thunderstorm Overcast
3:35 AM 71.6 °F - 69.8 °F 94% 29.79 in 10.0 mi WSW 13.8 mph 24.2 mph N/A   Overcast
3:55 AM 71.6 °F - 68.0 °F 88% 29.79 in 10.0 mi WSW 13.8 mph 20.7 mph N/A   Overcast
4:15 AM 71.6 °F - 69.8 °F 94% 29.77 in 10.0 mi SW 10.4 mph 18.4 mph N/A   Overcast
4:35 AM 71.6 °F - 69.8 °F 94% 29.78 in 10.0 mi WSW 16.1 mph 26.5 mph N/A Thunderstorm Overcast
4:55 AM 71.6 °F - 69.8 °F 94% 29.78 in 10.0 mi WSW 12.7 mph 23.0 mph N/A   Overcast
5:15 AM 71.6 °F - 68.0 °F 88% 29.77 in 10.0 mi WSW 11.5 mph 19.6 mph N/A Thunderstorm Overcast
5:35 AM 71.6 °F - 68.0 °F 88% 29.78 in 10.0 mi WSW 13.8 mph 21.9 mph N/A Thunderstorm Overcast
5:55 AM 71.6 °F - 68.0 °F 88% 29.79 in 10.0 mi WSW 15.0 mph 20.7 mph N/A   Overcast
6:15 AM 71.6 °F - 69.8 °F 94% 29.79 in 10.0 mi WSW 11.5 mph 18.4 mph N/A   Overcast
6:35 AM 71.6 °F - 69.8 °F 94% 29.80 in 10.0 mi WSW 10.4 mph 26.5 mph N/A   Overcast
6:55 AM 71.6 °F - 69.8 °F 94% 29.81 in 10.0 mi WSW 12.7 mph 17.3 mph N/A   Overcast
7:15 AM 71.6 °F - 69.8 °F 94% 29.81 in 10.0 mi WSW 15.0 mph 23.0 mph N/A   Overcast
7:35 AM 71.6 °F - 69.8 °F 94% 29.82 in 10.0 mi WSW 9.2 mph - N/A   Overcast
7:55 AM 71.6 °F - 69.8 °F 94% 29.82 in 10.0 mi WSW 6.9 mph - N/A   Overcast
8:15 AM 73.4 °F - 69.8 °F 88% 29.84 in 10.0 mi WSW 8.1 mph 17.3 mph N/A   Overcast
8:35 AM 73.4 °F - 69.8 °F 88% 29.84 in 10.0 mi West 11.5 mph 19.6 mph N/A   Mostly Cloudy
8:55 AM 73.4 °F - 69.8 °F 88% 29.84 in 10.0 mi West 11.5 mph - N/A   Scattered Clouds
9:15 AM 75.2 °F - 69.8 °F 83% 29.85 in 10.0 mi West 19.6 mph 23.0 mph N/A   Mostly Cloudy
9:35 AM 73.4 °F - 68.0 °F 83% 29.85 in 10.0 mi West 16.1 mph 24.2 mph N/A   Scattered Clouds
9:55 AM 75.2 °F - 68.0 °F 78% 29.85 in 10.0 mi West 12.7 mph 23.0 mph N/A   Mostly Cloudy
10:15 AM 73.4 °F - 68.0 °F 83% 29.86 in 10.0 mi West 16.1 mph 25.3 mph N/A   Scattered Clouds
10:35 AM 75.2 °F - 68.0 °F 78% 29.86 in 10.0 mi West 12.7 mph 21.9 mph N/A   Scattered Clouds
10:55 AM 75.2 °F - 64.4 °F 69% 29.86 in 10.0 mi West 15.0 mph 26.5 mph N/A   Mostly Cloudy
11:15 AM 78.8 °F - 64.4 °F 61% 29.85 in 10.0 mi West 18.4 mph 23.0 mph N/A   Scattered Clouds
11:35 AM 78.8 °F - 60.8 °F 54% 29.84 in 10.0 mi West 15.0 mph 23.0 mph N/A   Clear
11:55 AM 78.8 °F - 59.0 °F 51% 29.83 in 10.0 mi West 12.7 mph 23.0 mph N/A   Clear
12:15 PM 80.6 °F 81.5 °F 60.8 °F 51% 29.83 in 10.0 mi WNW 15.0 mph - N/A   Clear
12:35 PM 78.8 °F - 60.8 °F 54% 29.82 in 10.0 mi West 13.8 mph - N/A   Clear
12:55 PM 80.6 °F 81.1 °F 59.0 °F 48% 29.82 in 10.0 mi West 16.1 mph 24.2 mph N/A   Clear
1:15 PM 78.8 °F - 55.4 °F 44% 29.81 in 10.0 mi West 13.8 mph 19.6 mph N/A   Scattered Clouds
1:35 PM 78.8 °F - 51.8 °F 39% 29.80 in 10.0 mi West 11.5 mph 21.9 mph N/A   Scattered Clouds
1:55 PM 77.0 °F - 53.6 °F 44% 29.79 in 10.0 mi West 19.6 mph 26.5 mph N/A   Mostly Cloudy
2:15 PM 75.2 °F - 53.6 °F 47% 29.79 in 10.0 mi West 13.8 mph - N/A   Overcast
2:35 PM 73.4 °F - 51.8 °F 47% 29.81 in 10.0 mi West 16.1 mph 19.6 mph N/A   Overcast
2:55 PM 71.6 °F - 50.0 °F 46% 29.84 in 10.0 mi West 10.4 mph 20.7 mph N/A   Overcast
3:15 PM 71.6 °F - 50.0 °F 46% 29.83 in 10.0 mi WNW 11.5 mph 16.1 mph N/A   Overcast
3:35 PM 71.6 °F - 50.0 °F 46% 29.83 in 10.0 mi WNW 9.2 mph - N/A   Overcast
3:55 PM 71.6 °F - 46.4 °F 41% 29.86 in 10.0 mi West 11.5 mph 20.7 mph N/A   Overcast
4:15 PM 69.8 °F - 44.6 °F 40% 29.87 in 10.0 mi WNW 13.8 mph 20.7 mph N/A   Overcast
4:35 PM 69.8 °F - 46.4 °F 43% 29.86 in 10.0 mi WNW 11.5 mph 18.4 mph N/A   Overcast
4:55 PM 68.0 °F - 44.6 °F 43% 29.87 in 10.0 mi WNW 17.3 mph 25.3 mph N/A   Overcast
5:15 PM 68.0 °F - 44.6 °F 43% 29.87 in 10.0 mi WNW 16.1 mph 21.9 mph N/A   Overcast
5:35 PM 68.0 °F - 44.6 °F 43% 29.88 in 10.0 mi WNW 11.5 mph 17.3 mph N/A   Overcast
5:55 PM 66.2 °F - 46.4 °F 49% 29.88 in 10.0 mi West 6.9 mph - N/A   Overcast
6:15 PM 66.2 °F - 46.4 °F 49% 29.89 in 10.0 mi West 9.2 mph 16.1 mph N/A   Overcast
6:35 PM 64.4 °F - 46.4 °F 52% 29.89 in 10.0 mi West 11.5 mph 17.3 mph N/A   Overcast
6:55 PM 64.4 °F - 46.4 °F 52% 29.89 in 10.0 mi West 16.1 mph - N/A   Overcast
7:15 PM 64.4 °F - 46.4 °F 52% 29.89 in 10.0 mi West 19.6 mph 25.3 mph N/A   Overcast
7:35 PM 64.4 °F - 46.4 °F 52% 29.91 in 10.0 mi WNW 21.9 mph 29.9 mph N/A   Overcast
7:55 PM 62.6 °F - 48.2 °F 59% 29.90 in 10.0 mi WNW 13.8 mph 21.9 mph N/A   Overcast
8:15 PM 62.6 °F - 48.2 °F 59% 29.90 in 10.0 mi WNW 12.7 mph 20.7 mph N/A   Overcast
8:35 PM 60.8 °F - 48.2 °F 63% 29.91 in 10.0 mi WNW 15.0 mph 21.9 mph N/A   Overcast
8:55 PM 60.8 °F - 50.0 °F 68% 29.93 in 10.0 mi WNW 17.3 mph - N/A   Overcast
9:15 PM 59.0 °F - 50.0 °F 72% 29.93 in 10.0 mi WNW 17.3 mph 27.6 mph N/A   Overcast
9:35 PM 55.4 °F - 51.8 °F 88% 29.95 in 10.0 mi WNW 16.1 mph 19.6 mph N/A   Overcast
9:55 PM 55.4 °F - 51.8 °F 88% 29.96 in 10.0 mi WNW 11.5 mph - N/A   Overcast
10:15 PM 53.6 °F - 51.8 °F 94% 29.96 in 10.0 mi WNW 8.1 mph - N/A   Overcast
10:35 PM 53.6 °F - 48.2 °F 82% 29.97 in 10.0 mi NW 8.1 mph - N/A   Overcast
10:55 PM 51.8 °F - 46.4 °F 82% 29.96 in 10.0 mi NNW 3.5 mph - N/A   Overcast
11:15 PM 51.8 °F - 46.4 °F 82% 29.98 in 10.0 mi NW 11.5 mph - N/A Rain Light Rain
11:35 PM 51.8 °F - 46.4 °F 82% 29.99 in 10.0 mi WNW 6.9 mph - N/A   Overcast
11:55 PM 50.0 °F - 46.4 °F 87% 29.98 in 10.0 mi NW 9.2 mph - N/A   Mostly Cloudy